Location: Izdebno
(52.6670°N, 16.2170°E)
Time: 19:42:36
(UTC+01:00)

A-11 Canister half - Visible Passes

Search period start: 22 February 2024 00:00
Search period end: 03 March 2024 00:00
Orbit: 1526 x 1682 km, 47.3° (Epoch: 21 February)

Date Brightness Start Highest point End Pass type
(mag) Time Alt. Az. Time Alt. Az. Time Alt. Az.
22 Feb 9.9 03:12:01 31° SSE 03:12:01 31° SSE 03:16:51 10° SE visible
22 Feb 10.1 05:10:21 18° WSW 05:11:14 18° SW 05:16:55 10° SSW visible
22 Feb 10.4 20:27:20 10° S 20:29:49 17° S 20:29:49 17° S visible
23 Feb 10.2 02:51:58 23° SSE 02:51:58 23° SSE 02:55:13 10° SE visible
23 Feb 10.1 04:50:17 19° SW 04:50:17 19° SW 04:55:32 10° S visible
23 Feb 10.1 20:05:49 10° S 20:10:05 22° SSE 20:10:05 22° SSE visible
23 Feb 10.8 22:07:29 10° SW 22:08:27 14° SW 22:08:27 14° SW visible
24 Feb 10.6 02:31:59 16° SE 02:31:59 16° SE 02:33:34 10° SE visible
24 Feb 10.2 04:30:20 18° SSW 04:30:20 18° SSW 04:34:09 10° S visible
24 Feb 9.9 19:44:19 10° S 19:50:20 24° SE 19:50:20 24° SE visible
24 Feb 10.4 21:45:48 10° SW 21:48:40 22° SW 21:48:40 22° SW visible
25 Feb 10.4 04:10:27 16° SSW 04:10:27 16° SSW 04:12:45 10° S visible
25 Feb 9.9 19:22:51 10° S 19:29:46 23° SE 19:30:29 23° SE visible
25 Feb 9.9 21:24:08 10° SW 21:28:50 31° SSW 21:28:50 31° SSW visible
26 Feb 10.7 03:50:38 12° S 03:50:38 12° S 03:51:19 10° S visible
26 Feb 9.9 19:01:23 10° S 19:08:07 22° SE 19:10:35 20° ESE visible
26 Feb 9.5 21:02:28 10° SW 21:08:55 41° SSW 21:08:55 41° SSW visible
26 Feb 10.8 23:06:21 10° WSW 23:07:16 14° WSW 23:07:16 14° WSW visible
27 Feb 10.1 18:39:56 10° S 18:46:29 21° SE 18:50:36 16° ESE visible
27 Feb 9.2 20:40:48 10° SW 20:48:56 47° SSE 20:48:56 47° SSE visible
27 Feb 10.5 22:44:38 10° WSW 22:47:16 21° WSW 22:47:16 21° WSW visible
28 Feb 10.2 18:18:30 10° S 18:24:51 20° SE 18:30:32 11° E visible
28 Feb 9.1 20:19:08 10° SW 20:28:03 46° SSE 20:28:51 45° SE visible
28 Feb 10.0 22:22:54 10° WSW 22:27:11 30° WSW 22:27:11 30° WSW visible
29 Feb 10.2 17:57:05 10° S 18:03:13 19° SE 18:09:14 10° E visible
29 Feb 9.2 19:57:28 10° SW 20:06:22 45° SSE 20:08:42 39° ESE visible
29 Feb 9.6 22:01:11 10° WSW 22:07:01 41° WSW 22:07:01 41° WSW visible
01 Mar 9.3 19:35:49 10° SW 19:44:41 44° SSE 19:48:28 31° ESE visible
01 Mar 9.2 21:39:27 10° WSW 21:46:47 53° SW 21:46:47 53° SW visible
01 Mar 10.8 23:44:01 10° W 23:45:05 14° W 23:45:05 14° W visible
02 Mar 9.4 19:14:10 10° SW 19:23:00 43° SSE 19:28:10 24° E visible
02 Mar 8.9 21:17:43 10° WSW 21:26:29 62° S 21:26:29 62° S visible
02 Mar 10.5 23:22:17 10° W 23:24:47 20° W 23:24:47 20° W visible
